[[{"header":{"parameterUnit":"m.s-1","parameterCategory":1,"la1":30.2991,"la2":30.254,"lo1":-89.0895,"lo2":-89.0444,"dy":0.0017,"dx":0.0017,"nx":28,"ny":28,"refTime":"2024-08-29T03:00:00:Z","depth":0,"parameterNumber":2,"parameterNumberName":"U-component_of_WINDS"},"data":[0,0,0,0,0,0,0,0,0,0,0,0,0,0,0,0,0,0,0,0,0,0,0,0,0,0,0,0,0,0,0,0,0,0,0,0,0,0,0,0,0,0,0,0,0,0,0,0,0,0,0,0,0,0,0,0,0,0,0.4103,0.4105,0,0.4271,0.4272,0.4274,0.437,0.437,0.437,0.4371,0.4543,0.4547,0.4551,0,0,0,0,0,0,0,0,0,0,0,0,0,0.3867,0.3871,0.4103,0.4105,0.4107,0.427,0.4273,0.4275,0.437,0.437,0.437,0.4371,0.4541,0.4546,0.4552,0,0,0,0,0,0,0,0,0,0,0,0,0,0.3995,0.3872,0.4103,0.4174,0.4182,0.427,0.4273,0.4275,0.4369,0.437,0.437,0.4371,0.454,0.4546,0.4552,0.4582,0,0,0.4572,0.4575,0,0,0,0,0,0,0,0,0.3988,0.4004,0.4162,0.417,0.4179,0.43,0.4252,0.4378,0.4369,0.4298,0.4371,0.4371,0.4462,0.4474,0.4505,0.459,0.4597,0.4572,0.4576,0.4579,0.4581,0,0,0,0,0,0,0,0.3979,0.3997,0.417,0.4164,0.4174,0.4198,0.4217,0.4277,0.4375,0.4305,0.4312,0.433,0.4466,0.4498,0.4509,0.46,0.4572,0.4578,0.4582,0.4584,0.4718,0.4718,0,0,0,0,0,0,0.3958,0.3989,0.4164,0.4175,0.4083,0.4202,0.4223,0.426,0.4375,0.4393,0.433,0.4334,0.4487,0.4502,0.4516,0.4558,0.4579,0.4585,0.4589,0.4719,0.4718,0.4718,0,0,0,0,0,0,0.3953,0.3973,0.4158,0.4084,0.4109,0.4206,0.4247,0.4263,0.4296,0.4394,0.4412,0.4344,0.4488,0.4507,0.4565,0.4566,0.4588,0.4594,0.4719,0.4718,0.4718,0.4643,0,0,0,0,0,0,0.3946,0.3971,0.3982,0.4083,0.4113,0.4203,0.4247,0.4266,0.4306,0.4314,0.4412,0.4429,0.449,0.4555,0.4571,0.4575,0.4599,0.4719,0.4719,0.4718,0.4646,0.464,0.4635,0,0,0,0,0,0.3937,0.3955,0.3983,0.4003,0.413,0.4203,0.422,0.4289,0.4306,0.4319,0.4382,0.4426,0.4563,0.456,0.4579,0.4585,0.4719,0.4719,0.4718,0.4648,0.4641,0.4635,0,0,0,0,0,0,0.3851,0.3969,0.4001,0.4052,0.4117,0.4219,0.4237,0.4279,0.434,0.4345,0.4429,0.445,0.45,0.4548,0.4543,0.462,0.4646,0.4649,0.4586,0.458,0.4575,0.4562,0.4604,0,0,0,0,0,0.3838,0.3888,0.3988,0.4024,0.4054,0.414,0.4174,0.4222,0.4292,0.432,0.4388,0.4454,0.4513,0.4549,0.4608,0.4653,0.4676,0.4667,0.4661,0.4656,0.4658,0.4686,0.4683,0.4716,0.4716,0.4716,0,0,0.3812,0.3883,0.3909,0.4008,0.4064,0.4113,0.4162,0.4212,0.425,0.4328,0.4387,0.4438,0.4519,0.457,0.4596,0.4612,0.4654,0.4656,0.4651,0.4656,0.4685,0.4682,0.4679,0.4715,0.4715,0.4715,0,0,0.379,0.3848,0.3884,0.3938,0.4022,0.4079,0.4087,0.4183,0.422,0.4281,0.434,0.4386,0.4485,0.4539,0.458,0.4578,0.4621,0.4595,0.4567,0.4593,0.459,0.4589,0.4588,0.4587,0.4597,0.4596,0.4596,0,0.3747,0.3823,0.3897,0.3944,0.3986,0.4059,0.4096,0.4145,0.4244,0.4271,0.4287,0.4412,0.4472,0.4537,0.4536,0.4567,0.4579,0.4584,0.4585,0.4584,0.4583,0.4583,0.4583,0.4593,0.4593,0.4594,0.4594,0,0.3766,0.3818,0.3837,0.393,0.3975,0.4016,0.4096,0.4132,0.4176,0.4231,0.4292,0.4366,0.4441,0.446,0.4504,0.4532,0.4539,0.4569,0.4597,0.4575,0.4577,0.4578,0.4587,0.4589,0.459,0.4591,0,0,0.3694,0.3827,0.3833,0.3876,0.3974,0.4016,0.4061,0.4134,0.4163,0.4229,0.4269,0.4351,0.4379,0.4425,0.4476,0.4498,0.4492,0.4526,0.4529,0.4517,0.4528,0.4505,0.4504,0.4521,0.4522,0.4522,0.4521,0,0.3685,0.3769,0.3837,0.3896,0.3945,0.4016,0.4055,0.4119,0.4172,0.4222,0.4281,0.4337,0.437,0.4399,0.4424,0.4487,0.4496,0.4489,0.456,0.4561,0.4537,0.4505,0.448,0.4476,0.4523,0.4523,0.4523,0,0.3686,0.3749,0.3812,0.3905,0.3929,0.3963,0.4036,0.4082,0.4157,0.4194,0.4245,0.4297,0.4349,0.4372,0.4444,0.4437,0.4471,0.4506,0.4508,0.4517,0.454,0.4513,0.4476,0.4475,0.4525,0.4525,0.4524,0,0.3627,0.3727,0.3779,0.3813,0.3923,0.3945,0.3992,0.4067,0.4107,0.4171,0.4197,0.4266,0.4304,0.4356,0.4426,0.4436,0.4491,0.452,0.4523,0.4521,0.4531,0.453,0.4499,0.4553,0.4553,0.4553,0.4553,0,0.361,0.3646,0.3753,0.3785,0.3827,0.3905,0.3946,0.3998,0.4065,0.4108,0.4173,0.4212,0.4302,0.4352,0.4408,0.4459,0.4475,0.4507,0.4521,0.4501,0.4497,0.4524,0.4526,0.4552,0.4552,0.4552,0.4552,0,0.3551,0.3624,0.3684,0.3783,0.3809,0.3836,0.3921,0.3954,0.4011,0.4065,0.4082,0.4171,0.4233,0.4308,0.4395,0.4432,0.4478,0.45,0.4453,0.4461,0.446,0.4459,0.4446,0.4448,0.4499,0.4499,0.4498,0,0.3535,0.3564,0.3666,0.37,0.3745,0.3798,0.3839,0.3917,0.3957,0.4044,0.4067,0.4134,0.4192,0.4289,0.4362,0.4428,0.4452,0.4443,0.4462,0.4441,0.4452,0.4449,0.4452,0.4437,0.4436,0.4435,0.4435,0,0.3499,0.3534,0.359,0.3659,0.3706,0.3765,0.3826,0.385,0.394,0.3982,0.4047,0.4091,0.418,0.4246,0.4322,0.4371,0.4418,0.4428,0.4433,0.4412,0.4383,0.4399,0.4438,0.4428,0.4429,0.4429,0.443,0.443,0.3461,0.349,0.3567,0.3628,0.3682,0.3738,0.3774,0.3835,0.389,0.3968,0.4011,0.4075,0.4149,0.4256,0.4303,0.4354,0.4371,0.4377,0.4379,0.4379,0.4373,0.4375,0.4369,0.4369,0.4369,0.4369,0.437,0,0.3428,0.3481,0.3536,0.362,0.3667,0.3707,0.3777,0.3815,0.387,0.3935,0.3991,0.4065,0.413,0.4207,0.4277,0.4303,0.4326,0.4319,0.4318,0.4328,0.4354,0.4343,0.4299,0.4299,0.4299,0.4299,0.4299,0.4299,0.3416,0.3468,0.3512,0.3592,0.3645,0.3708,0.3744,0.3796,0.3849,0.3929,0.3983,0.4033,0.4104,0.4179,0.424,0.4262,0.4284,0.427,0.4298,0.432,0.4326,0.4332,0.4322,0.4274,0.4274,0.4268,0.4268,0.4268]},{"header":{"parameterUnit":"m.s-1","parameterCategory":1,"la1":30.2991,"la2":30.254,"lo1":-89.0895,"lo2":-89.0444,"dy":0.0017,"dx":0.0017,"nx":28,"ny":28,"refTime":"2024-08-29T03:00:00:Z","depth":0,"parameterNumber":3,"parameterNumberName":"V-component_of_WINDS"},"data":[0,0,0,0,0,0,0,0,0,0,0,0,0,0,0,0,0,0,0,0,0,0,0,0,0,0,0,0,0,0,0,0,0,0,0,0,0,0,0,0,0,0,0,0,0,0,0,0,0,0,0,0,0,0,0,0,0,0,1.2683,1.2681,0,1.248,1.2478,1.2476,1.234,1.234,1.2339,1.2338,1.2124,1.2119,1.2115,0,0,0,0,0,0,0,0,0,0,0,0,0,1.2948,1.2944,1.2683,1.2681,1.2678,1.2481,1.2478,1.2475,1.2341,1.234,1.2338,1.2337,1.2126,1.212,1.2114,0,0,0,0,0,0,0,0,0,0,0,0,0,1.2798,1.2942,1.2684,1.2588,1.2577,1.2481,1.2478,1.2474,1.2341,1.2339,1.2338,1.2337,1.2128,1.2121,1.2113,1.2096,0,0,1.2091,1.2088,0,0,0,0,0,0,0,0,1.2806,1.2788,1.2604,1.2594,1.2582,1.2434,1.2493,1.2347,1.2341,1.243,1.2338,1.2336,1.2228,1.2213,1.2177,1.2086,1.2077,1.2091,1.2086,1.2083,1.2081,0,0,0,0,0,0,0,1.2817,1.2796,1.2603,1.2602,1.2588,1.2552,1.2529,1.2464,1.2339,1.2422,1.2412,1.239,1.2222,1.2185,1.2171,1.2073,1.2091,1.2084,1.208,1.2077,1.1955,1.1956,0,0,0,0,0,0,1.2843,1.2806,1.2609,1.2597,1.2693,1.2549,1.2523,1.2483,1.2339,1.2316,1.2392,1.2385,1.2198,1.218,1.2163,1.2131,1.2083,1.2076,1.2072,1.1953,1.1955,1.1956,0,0,0,0,0,0,1.285,1.2827,1.2617,1.2698,1.2669,1.2546,1.2502,1.248,1.2443,1.2316,1.2293,1.2377,1.2196,1.2173,1.2113,1.2122,1.2073,1.2066,1.1952,1.1954,1.1955,1.2069,0,0,0,0,0,0,1.2858,1.283,1.2824,1.2699,1.2665,1.2574,1.2502,1.2477,1.2431,1.242,1.2296,1.2275,1.2193,1.2125,1.2106,1.2111,1.2061,1.1951,1.1953,1.1955,1.2064,1.2075,1.2084,0,0,0,0,0,1.2868,1.2863,1.2824,1.2801,1.2655,1.2574,1.2555,1.2463,1.2433,1.2424,1.2342,1.2279,1.2125,1.212,1.2098,1.2101,1.195,1.1952,1.1955,1.206,1.2073,1.2084,0,0,0,0,0,0,1.299,1.2845,1.28,1.2756,1.2679,1.2552,1.2538,1.2479,1.2407,1.24,1.2287,1.226,1.2211,1.215,1.2147,1.2075,1.2029,1.2028,1.2117,1.2128,1.2138,1.2153,1.2055,0,0,0,0,0,1.3013,1.2962,1.2836,1.2809,1.2773,1.2663,1.2624,1.256,1.2474,1.2441,1.2355,1.2273,1.2205,1.2163,1.2094,1.2055,1.2025,1.2046,1.2056,1.2064,1.2064,1.2036,1.2043,1.1964,1.1964,1.1964,0,0,1.3058,1.2972,1.2946,1.2832,1.2764,1.2711,1.2636,1.2584,1.2542,1.2432,1.237,1.2305,1.2205,1.2155,1.2128,1.2102,1.2079,1.2067,1.2075,1.2069,1.2039,1.2047,1.2054,1.1966,1.1966,1.1965,0,0,1.3112,1.3043,1.3012,1.2946,1.2846,1.2772,1.2765,1.2647,1.2599,1.2536,1.2451,1.24,1.2287,1.2219,1.217,1.2198,1.2135,1.2178,1.2229,1.2203,1.2209,1.2214,1.2223,1.2227,1.2178,1.2179,1.2179,0,1.318,1.3099,1.3003,1.2955,1.2907,1.2806,1.2772,1.2712,1.2594,1.2561,1.2534,1.239,1.2315,1.2247,1.2254,1.2218,1.2204,1.2192,1.2217,1.2221,1.2224,1.223,1.2234,1.2184,1.2184,1.2183,1.2183,0,1.3186,1.3131,1.3118,1.3008,1.2957,1.2917,1.2813,1.2773,1.2713,1.2642,1.2578,1.2485,1.2396,1.2375,1.2315,1.2297,1.2284,1.2239,1.219,1.2239,1.2243,1.2245,1.2193,1.2191,1.2189,1.2187,0,0,1.3312,1.315,1.3146,1.3095,1.2976,1.293,1.2884,1.2798,1.2765,1.2687,1.2644,1.255,1.2507,1.2451,1.2383,1.2361,1.2387,1.2317,1.2313,1.2332,1.2359,1.2394,1.2398,1.2345,1.2345,1.2345,1.2367,0,1.3348,1.3263,1.3174,1.3119,1.3066,1.2969,1.2928,1.285,1.2782,1.2725,1.2648,1.2584,1.2533,1.2498,1.2472,1.239,1.239,1.2387,1.2302,1.23,1.2329,1.2401,1.2437,1.2462,1.2368,1.2368,1.2368,0,1.3378,1.3306,1.3246,1.3131,1.3105,1.3071,1.2984,1.2931,1.2839,1.2791,1.2729,1.2657,1.2601,1.256,1.248,1.248,1.2439,1.2394,1.2392,1.238,1.2337,1.2389,1.2468,1.2471,1.237,1.237,1.237,0,1.3474,1.3362,1.3311,1.3269,1.3135,1.3112,1.3055,1.2962,1.2915,1.2838,1.2806,1.2724,1.2678,1.2615,1.2521,1.25,1.2451,1.2402,1.2407,1.241,1.24,1.2402,1.2473,1.2377,1.2377,1.2377,1.2377,0,1.3523,1.3489,1.3352,1.3321,1.328,1.3178,1.3139,1.3073,1.2991,1.2943,1.2853,1.281,1.2689,1.263,1.2557,1.2501,1.2481,1.2439,1.2419,1.2446,1.2451,1.2417,1.2413,1.2378,1.2377,1.2377,1.2377,0,1.3623,1.353,1.3468,1.3346,1.3314,1.3289,1.3183,1.3147,1.3075,1.3015,1.2995,1.288,1.2806,1.2706,1.2601,1.2551,1.2505,1.2475,1.2537,1.2525,1.2535,1.2535,1.2585,1.2586,1.2492,1.2493,1.2494,0,1.366,1.3632,1.3507,1.347,1.3415,1.3356,1.3308,1.3206,1.3159,1.3052,1.3029,1.2949,1.2879,1.2765,1.2671,1.2589,1.2556,1.2579,1.2543,1.257,1.2554,1.2557,1.2553,1.2588,1.2589,1.2591,1.2592,0,1.3734,1.3689,1.3625,1.3544,1.349,1.3421,1.3348,1.3322,1.3203,1.3155,1.308,1.3026,1.2919,1.284,1.2746,1.2683,1.2617,1.2604,1.26,1.2627,1.2664,1.2643,1.2559,1.2603,1.2602,1.2601,1.2601,1.26,1.3802,1.3772,1.368,1.3611,1.3545,1.3479,1.3439,1.3361,1.3297,1.3204,1.3147,1.3073,1.2979,1.2847,1.2787,1.2727,1.27,1.2696,1.2694,1.2695,1.2703,1.2675,1.2709,1.2709,1.2708,1.2708,1.2707,0,1.387,1.3806,1.3744,1.3645,1.359,1.3534,1.345,1.3407,1.3344,1.3264,1.3197,1.3109,1.3032,1.2931,1.2846,1.2816,1.2784,1.2797,1.2798,1.2784,1.2732,1.2743,1.2825,1.2825,1.2825,1.2825,1.2825,1.2825,1.39,1.3846,1.379,1.3702,1.3637,1.3566,1.3523,1.346,1.3395,1.3301,1.3237,1.3173,1.3083,1.299,1.2916,1.2888,1.286,1.2883,1.2846,1.2798,1.2788,1.2778,1.2788,1.2878,1.2878,1.2902,1.2902,1.2903]}]]